FENGYUN 1C DEB, 30673

Orbit data source: Space-Track

FENGYUN 1C DEB, 30673 is space debris in SSO originally from a launch on Mon, 10 May 1999 UTC launched from the Taiyaun Space Center, China (TSC). Fengyun 1C debris stems from the Chinese weather satellite Fengyun-1C, which was intentionally destroyed by a Chinese anti-satellite missile in 2007. This event dramatically increased the amount of space debris, with thousands of trackable fragments posing hazards to satellites and human spaceflight. The Fengyun 1C debris cloud has become a focal point in discussions about space sustainability and the need for international regulations to prevent the creation of new debris.

Loading next visibility...
Identifier
30673, 1999-025AQF
Orbit
SSO
Country
Flag of CNCN / PRC
Related business
Manufacturer
Unknown
Mission
Spacecraft
Bus & Motor
Unknown
Mass
Unknown
Launch date (UTC)
1999-05-10 (27 years ago)
Launch vehicle
Unknown
Launch site
Taiyaun Space Center, China (TSC)
Object type
Payload
Rocket body
Debris
Shape & HBR
Unknown shape, 0.1 m
Radar Cross Section
Medium (>0.1 m² and <1 m²)

Expand to show TLE details & history
Last TLE update: 13 hours ago

TLE from 13 hours ago
0 FENGYUN 1C DEB
1 30673U 99025AQF 26177.62430308 -.00000066  00000-0 -13867-4 0  9996
2 30673  98.8906 227.6881 0050716 318.3357 193.7427 14.03552669992794
Epoch: 2026-06-26T14:58Z
TLE epoch observation values (Epoch: 2026-06-26T14:58:59.786Z)
Latitude
27.73392°
Longitude
-87.11827°
Altitude
920.675 km
Speed
7.376 km/s
True Right ascension
03h 29m 31s
True Declination
27° 35' 44"
Sunlit
Object was in daylight at epoch
Visualization orbit readout
Latitude
Unknown
Longitude
Unknown
Altitude
Unknown
Speed
Unknown
Apparent Right ascension
Unknown
Apparent Declination
Unknown
Sunlit
N/A
Visualization observer readout
Local Sidereal Time
15:22:26
Azimuth
Unknown
Elevation
Unknown
Doppler factor
Unknown
Orbital elements
Apogee altitude
915.512 km
Perigee altitude
841.904 km
Semi-major axis
7,256.845 km
Eccentricity
0.00507
Inclination
98.8906°
RAAN
227.6881°
Arg. of periapsis
318.3357°
True anomaly
193.60548°
Mean anomaly
193.7427°
Eccentric anomaly
193.67401°
Mean motion
3.51092 °/min
Orbital period
102.54 mins
BSTAR
-0.000013867
Loading maneuver chart data...
Computing Atmospheric mass density...

Documentation

Showing up to 5 results
|